Weather History for KM40 - April, 2012

Change the Weather History Date:

Tuesday, April 24, 2012

  Actual Average (WUND) Record (WUND)
Temperature  
Mean Temperature 56 °F -  
Max Temperature 75 °F - - (-1)
Min Temperature 37 °F - - (-1)
Degree Days  
Heating Degree Days 9    
Growing Degree Days 6 (Base 50)    
Moisture  
Dew Point 42 °F    
Average Humidity 56    
Maximum Humidity 61    
Minimum Humidity 52    
Precipitation  
Precipitation 0.00 in - - ()
Sea Level Pressure  
Sea Level Pressure 29.98 in    
Wind  
Wind Speed 3 mph ()    
Max Wind Speed 13 mph    
Max Gust Speed -    
Visibility 9.8 miles    
Events      
Averages and records for this station are not official NWS values.
T = Trace of Precipitation, MM = Missing Value Source: Averaged Metar Reports

Daily Weather History Graph

Daily Weather History Graph

Search for Another Location

Airport or City:

Trip Planner

Search our weather history database for the weather conditions in past years. The results will help you decide how hot, cold, wet, or windy it might be!

Date:

Astronomy

Apr. 24, 2012 Rise Set
Actual Time 6:11 AM CDT 7:32 PM CDT
Civil Twilight 5:45 AM CDT 7:58 PM CDT
Nautical Twilight 5:14 AM CDT 8:30 PM CDT
Astronomical Twilight 4:41 AM CDT 9:02 PM CDT
Moon 8:14 AM CDT (4/24) 10:45 PM CDT (4/24)
Length of Visible Light 14h 13m
Length of Day
13h 20m
Waxing Crescent, 10% of the Moon is Illuminated
Apr 24
Waxing Crescent
Apr 29
First Quarter
May 5
Full
May 12
Last Quarter
May 20
New

Hourly Weather History & Observations

Time (CDT) Temp. Windchill Dew Point Humidity Pressure Visibility Wind Dir Wind Speed Gust Speed Precip Events Conditions
12:15 AM 39.2 °F - 26.6 °F 61% 30.01 in 10.0 mi Calm Calm - N/A   Clear
12:35 AM 39.2 °F - 26.6 °F 61% 30.01 in 10.0 mi Calm Calm - N/A   Clear
12:55 AM 39.2 °F - 26.6 °F 61% 30.01 in 10.0 mi Calm Calm - N/A   Clear
1:15 AM 39.2 °F - 26.6 °F 61% 30.00 in 10.0 mi Calm Calm - N/A   Clear
1:35 AM 39.2 °F - 26.6 °F 61% 30.00 in 10.0 mi Calm Calm - N/A   Clear
1:55 AM 37.4 °F - 24.8 °F 60% 30.00 in 10.0 mi Calm Calm - N/A   Clear
2:15 AM 37.4 °F - 24.8 °F 60% 30.00 in 10.0 mi Calm Calm - N/A   Clear
2:35 AM 37.4 °F - 24.8 °F 60% 30.00 in 10.0 mi Calm Calm - N/A   Clear
2:55 AM 37.4 °F - 24.8 °F 60% 29.99 in 9.0 mi Calm Calm - N/A   Clear
3:15 AM 37.4 °F - 24.8 °F 60% 29.99 in 10.0 mi Calm Calm - N/A   Clear
3:35 AM 39.2 °F - 26.6 °F 61% 29.99 in 10.0 mi Calm Calm - N/A   Mostly Cloudy
3:55 AM 42.8 °F 41.1 °F 28.4 °F 57% 29.99 in 10.0 mi WSW 3.5 mph - N/A   Mostly Cloudy
4:15 AM 42.8 °F - 30.2 °F 61% 29.99 in 10.0 mi Calm Calm - N/A   Scattered Clouds
4:35 AM 42.8 °F - 30.2 °F 61% 29.99 in 10.0 mi Calm Calm - N/A   Clear
4:55 AM 39.2 °F - 26.6 °F 61% 30.00 in 10.0 mi Calm Calm - N/A   Clear
5:15 AM 37.4 °F - 24.8 °F 60% 30.00 in 10.0 mi Calm Calm - N/A   Clear
5:35 AM 37.4 °F - 24.8 °F 60% 30.00 in 10.0 mi Calm Calm - N/A   Partly Cloudy
5:55 AM 37.4 °F - 24.8 °F 60% 30.01 in 10.0 mi Calm Calm - N/A   Clear
6:15 AM 37.4 °F - 23.0 °F 56% 30.01 in 10.0 mi Calm Calm - N/A   Clear
6:35 AM 37.4 °F - 23.0 °F 56% 30.02 in 8.0 mi Calm Calm - N/A   Partly Cloudy
6:55 AM 37.4 °F - 24.8 °F 60% 30.03 in 8.0 mi Calm Calm - N/A   Clear
7:15 AM 39.2 °F - 26.6 °F 61% 30.04 in 9.0 mi Calm Calm - N/A   Clear
7:35 AM 44.6 °F - 30.2 °F 57% 30.04 in 9.0 mi Calm Calm - N/A   Clear
7:55 AM 48.2 °F - 32.0 °F 54% 30.04 in 10.0 mi Calm Calm - N/A   Clear
8:15 AM 51.8 °F - 35.6 °F 54% 30.05 in 10.0 mi WNW 4.6 mph - N/A   Clear
8:35 AM 53.6 °F - 37.4 °F 54% 30.05 in 10.0 mi West 4.6 mph - N/A   Clear
8:55 AM 55.4 °F - 39.2 °F 54% 30.05 in 10.0 mi West 6.9 mph - N/A   Clear
9:15 AM 57.2 °F - 42.8 °F 59% 30.06 in 10.0 mi WNW 9.2 mph - N/A   Clear
9:35 AM 60.8 °F - 44.6 °F 55% 30.06 in 10.0 mi NW 8.1 mph - N/A   Clear
9:55 AM 62.6 °F - 46.4 °F 55% 30.06 in 10.0 mi WNW 6.9 mph - N/A   Clear
10:15 AM 62.6 °F - 46.4 °F 55% 30.06 in 10.0 mi WSW 10.4 mph - N/A   Clear
10:35 AM 64.4 °F - 48.2 °F 56% 30.06 in 10.0 mi West 6.9 mph - N/A   Clear
10:55 AM 66.2 °F - 48.2 °F 52% 30.06 in 10.0 mi West 9.2 mph - N/A   Clear
11:15 AM 66.2 °F - 50.0 °F 56% 30.05 in 10.0 mi WSW 8.1 mph - N/A   Clear
11:35 AM 68.0 °F - 51.8 °F 56% 30.05 in 9.0 mi West 9.2 mph - N/A   Clear
11:55 AM 69.8 °F - 51.8 °F 53% 30.05 in 10.0 mi WNW 6.9 mph - N/A   Clear
12:15 PM 69.8 °F - 51.8 °F 53% 30.04 in 10.0 mi WNW 12.7 mph - N/A   Clear
12:35 PM 69.8 °F - 53.6 °F 56% 30.03 in 10.0 mi West 6.9 mph - N/A   Clear
12:55 PM 71.6 °F - 53.6 °F 53% 30.02 in 10.0 mi WNW 5.8 mph - N/A   Clear
1:15 PM 71.6 °F - 53.6 °F 53% 30.00 in 9.0 mi WSW 10.4 mph - N/A   Clear
1:35 PM 71.6 °F - 55.4 °F 57% 30.00 in 10.0 mi West 8.1 mph - N/A   Clear
1:55 PM 73.4 °F - 55.4 °F 53% 29.99 in 10.0 mi WNW 8.1 mph - N/A   Clear
2:15 PM 73.4 °F - 55.4 °F 53% 29.99 in 10.0 mi WSW 9.2 mph - N/A   Clear
2:35 PM 73.4 °F - 55.4 °F 53% 29.98 in 10.0 mi SW 9.2 mph - N/A   Clear
2:55 PM 73.4 °F - 55.4 °F 53% 29.97 in 10.0 mi WSW 6.9 mph - N/A   Clear
3:15 PM 73.4 °F - 57.2 °F 57% 29.96 in 10.0 mi WSW 10.4 mph - N/A   Clear
3:35 PM 73.4 °F - 57.2 °F 57% 29.95 in 10.0 mi West 10.4 mph - N/A   Clear
4:15 PM 73.4 °F - 57.2 °F 57% 29.94 in 10.0 mi West 5.8 mph - N/A   Clear
4:35 PM 75.2 °F - 57.2 °F 53% 29.93 in 10.0 mi WSW 6.9 mph - N/A   Clear
4:55 PM 73.4 °F - 57.2 °F 57% 29.92 in 10.0 mi SW 10.4 mph - N/A   Clear
5:15 PM 73.4 °F - 57.2 °F 57% 29.92 in 9.0 mi West 8.1 mph - N/A   Clear
5:35 PM 73.4 °F - 55.4 °F 53% 29.92 in 10.0 mi WSW 5.8 mph - N/A   Clear
5:55 PM 73.4 °F - 55.4 °F 53% 29.92 in 10.0 mi WSW 8.1 mph - N/A   Clear
6:15 PM 73.4 °F - 55.4 °F 53% 29.91 in 9.0 mi SW 6.9 mph - N/A   Clear
6:35 PM 71.6 °F - 53.6 °F 53% 29.91 in 10.0 mi SW 8.1 mph - N/A   Clear
6:55 PM 71.6 °F - 53.6 °F 53% 29.91 in 10.0 mi SW 6.9 mph - N/A   Clear
7:15 PM 69.8 °F - 51.8 °F 53% 29.91 in 10.0 mi SW 5.8 mph - N/A   Clear
7:35 PM 66.2 °F - 48.2 °F 52% 29.90 in 10.0 mi SSW 4.6 mph - N/A   Clear
7:55 PM 64.4 °F - 46.4 °F 52% 29.90 in 10.0 mi Calm Calm - N/A   Clear
8:15 PM 60.8 °F - 44.6 °F 55% 29.91 in 10.0 mi Calm Calm - N/A   Clear
8:35 PM 57.2 °F - 42.8 °F 59% 29.91 in 10.0 mi Calm Calm - N/A   Clear
8:55 PM 57.2 °F - 42.8 °F 59% 29.91 in 10.0 mi South 5.8 mph - N/A   Clear
9:15 PM 60.8 °F - 44.6 °F 55% 29.91 in 10.0 mi South 5.8 mph - N/A   Clear
9:35 PM 59.0 °F - 42.8 °F 55% 29.91 in 10.0 mi SSW 4.6 mph - N/A   Clear
9:55 PM 59.0 °F - 42.8 °F 55% 29.91 in 10.0 mi SSW 5.8 mph - N/A   Clear
10:15 PM 59.0 °F - 42.8 °F 55% 29.91 in 10.0 mi SSW 6.9 mph - N/A   Clear
10:35 PM 60.8 °F - 42.8 °F 52% 29.90 in 10.0 mi SSW 6.9 mph - N/A   Clear
10:55 PM 60.8 °F - 44.6 °F 55% 29.90 in 10.0 mi SSW 5.8 mph - N/A   Clear
11:15 PM 60.8 °F - 42.8 °F 52% 29.89 in 10.0 mi SSW 6.9 mph - N/A   Clear
11:35 PM 60.8 °F - 42.8 °F 52% 29.89 in 10.0 mi SSW 6.9 mph - N/A   Clear
11:55 PM 60.8 °F - 42.8 °F 52% 29.89 in 10.0 mi SSW 5.8 mph - N/A   Clear